Location: STAR School
(35.3054°N, 111.2976°W)
Time: 23:12:43
(UTC-07:00)

PCSat - Visible Passes

Search period start: 21 April 2019 00:00
Search period end: 01 May 2019 00:00
Orbit: 785 x 794 km, 67.0° (Epoch: 21 April)

Date Brightness Start Highest point End Pass type
(mag) Time Alt. Az. Time Alt. Az. Time Alt. Az.
21 Apr 10.9 21:18:59 27° NE 21:18:59 27° NE 21:21:29 10° NE visible
21 Apr 11.7 22:59:32 20° WNW 22:59:55 21° NW 23:03:55 10° N visible
22 Apr 10.2 20:46:12 34° E 20:46:12 34° E 20:50:17 10° NE visible
22 Apr 11.4 22:26:38 21° W 22:28:47 28° NW 22:33:23 10° N visible
23 Apr 10.5 20:10:15 10° SSE 20:14:34 25° ESE 20:18:54 10° NE visible
23 Apr 10.9 21:52:42 10° SW 21:57:42 38° WNW 22:02:44 10° N visible
24 Apr 12.7 05:02:09 10° NNE 05:04:22 12° NE 05:06:33 10° ENE visible
24 Apr 10.9 19:40:21 10° SE 19:43:47 17° ESE 19:47:13 10° ENE visible
24 Apr 10.3 21:21:24 10° SW 21:26:40 53° WNW 21:31:58 10° NNE visible
25 Apr 9.7 20:50:18 10° SSW 20:55:41 75° WNW 21:01:07 10° NNE visible
25 Apr 12.7 22:38:47 10° WNW 22:39:58 11° NW 22:41:11 10° NNW visible
26 Apr 9.5 20:19:22 10° SSW 20:24:44 78° ESE 20:30:09 10° NNE visible
26 Apr 12.5 22:05:46 10° W 22:08:43 15° NW 22:11:42 10° NNW visible
27 Apr 11.7 05:10:39 10° N 05:15:29 32° NE 05:20:16 10° ESE visible
27 Apr 9.7 19:48:36 10° S 19:53:50 54° ESE 19:59:06 10° NE visible
27 Apr 12.1 21:33:39 10° W 21:37:32 20° NW 21:41:27 10° N visible
28 Apr 12.2 04:40:03 10° N 04:44:22 24° NE 04:48:39 10° ESE visible
28 Apr 11.7 21:01:53 10° WSW 21:06:24 27° NW 21:10:57 10° N visible
29 Apr 12.6 04:09:38 10° N 04:13:12 18° NE 04:16:46 10° E visible
29 Apr 11.2 20:30:22 10° SW 20:35:19 36° WNW 20:40:18 10° N visible
30 Apr 12.8 03:39:34 10° NNE 03:41:59 13° NE 03:44:25 10° ENE visible
30 Apr 10.6 19:59:02 10° SW 20:04:16 51° WNW 20:09:33 10° NNE visible
